TimeFrame on Redefined Productions
Outwar Sigil TimeFrame

Sigil TimeFrame

96 Gods Updated: 2019-07-22 11:38:56
NameTime LeftWindow Opens
Animated Captain26d 03:082019-06-27 04:09:00
Old World Drake26d 02:012019-06-27 05:16:00
Straya, the Underworld Ruler2d 11:002019-07-20 20:17:00
Varsanor, Master of Darkness1d 16:222019-07-21 14:55:00
Terrance, Rebel of Rallis1d 03:462019-07-22 03:31:00
Raiyar, the Shadow Master0d 19:592019-07-22 11:18:00
Slashbrood, Devourer of the Blackness0d 17:152019-07-22 14:02:00
Nar Zhul, Slayer of All0d 14:232019-07-22 16:54:00
Anguish0d 11:542019-07-22 19:23:00
Lacuste of the Swarm0d 11:322019-07-22 19:45:00
Bolkor, the Holy Master0d 09:452019-07-22 21:32:00
Volgan the Living Ironbark0d 09:032019-07-22 22:14:00
Vitkros, Hydra of the Deep0d 04:422019-07-23 02:35:00
Shadow0d 04:202019-07-23 02:57:00
Lord Sibannac0d 04:002019-07-23 03:17:00
Mistress of the Sword0d 02:242019-07-23 04:53:00
Smoot the Yeti0d 02:212019-07-23 04:56:00
Tylos, The Lord Master0d 02:072019-07-23 05:10:00
Great Lord Ganeshan0d 00:302019-07-23 06:47:00
Rotborn, Eater of the Dead0d 00:202019-07-23 06:57:00
Freezebreed, The Frozen Manipulator0d 00:272019-07-23 07:45:00
Jazzmin, Maiden of Vitality0d 01:292019-07-23 08:47:00
Wanhiroeaz the Devourer0d 02:542019-07-23 10:12:00
Garland, The Lord Keeper0d 02:572019-07-23 10:15:00
Synge, The Red Dragon0d 03:022019-07-23 10:20:00
Lord Varan0d 04:422019-07-23 12:00:00
Pinosis0d 05:402019-07-23 12:58:00
Jorun the Blazing Swordsman0d 06:332019-07-23 13:51:00
Lady Ariella0d 06:362019-07-23 13:54:00
Ebliss, Fallen Angel of Despair0d 06:552019-07-23 14:13:00
Kretok, Descendant of Nature0d 07:272019-07-23 14:45:00
Lord Narada0d 07:462019-07-23 15:04:00
Howldroid, Tormentor of the Pit0d 09:112019-07-23 16:29:00
Melt Bane, The Forbidden Demon Dragon0d 09:502019-07-23 17:08:00
Ganja the Stone Golem0d 10:292019-07-23 17:47:00
Sarcrina the Astral Priestess0d 11:172019-07-23 18:35:00
Ancient Magus Tarkin0d 11:192019-07-23 18:37:00
Baron Mu, Dark Rider of the Undead0d 12:482019-07-23 20:06:00
Numerocure, The Black Messenger of Evil0d 12:552019-07-23 20:13:00
Skarthul the Avenged0d 12:572019-07-23 20:15:00
Crane0d 13:502019-07-23 21:08:00
Archdevil Yirkon0d 15:192019-07-23 22:37:00
Brutalitar, Lord of the Underworld0d 16:032019-07-23 23:21:00
Rancid, Lord of Thugs0d 16:312019-07-23 23:49:00
Murderface0d 17:042019-07-24 00:22:00
Balerion, Dragon of Dread0d 17:372019-07-24 00:55:00
Akkel the Enflamed Warrior0d 17:462019-07-24 01:04:00
Hyrak, Bringer of Nightmares0d 19:482019-07-24 03:06:00
Traxodon the Plaguebringer0d 20:072019-07-24 03:25:00
Gnorb0d 20:102019-07-24 03:28:00
Lord Xordam0d 20:222019-07-24 03:40:00
Bloodchill the Grizzly0d 20:482019-07-24 04:06:00
Zikkir the Dark Archer0d 21:462019-07-24 05:04:00
Samatha Dark-Soul0d 22:202019-07-24 05:38:00
Crolvak, the Fire Master0d 22:402019-07-24 05:58:00
Lady Chaos, Queen of the Abyss0d 23:052019-07-24 06:23:00
The Emerald Assassin0d 23:432019-07-24 07:01:00
Gorganus of the Wood1d 02:482019-07-24 10:06:00
Esquin, the Kinetic Master1d 03:272019-07-24 10:45:00
Hackerphage, Protector of the Gateway1d 05:562019-07-24 13:14:00
Nessam1d 06:462019-07-24 14:04:00
Ag Nabak the Abomination1d 06:492019-07-24 14:07:00
Threk, King of Lords1d 07:572019-07-24 15:15:00
King Ashnar, Lord of the Unliving1d 08:082019-07-24 15:26:00
Tsort1d 09:112019-07-24 16:29:00
Windstrike The Vile1d 14:262019-07-24 21:44:00
Detox1d 15:472019-07-24 23:05:00
Emperor Neudeus, Controller of the Universe1d 15:502019-07-24 23:08:00
Felroc, Overseer of Hellfire1d 16:492019-07-25 00:07:00
Xynak, the Arcane Master1d 17:512019-07-25 01:09:00
Zertan, The Collector1d 18:282019-07-25 01:46:00
Amalgamated Apparition1d 19:182019-07-25 02:36:00
Dreg nor, Keeper of the Infernal Essence1d 20:472019-07-25 04:05:00
Dexor, Victor of Veldara1d 23:552019-07-25 07:13:00
Keeper of Nature2d 01:352019-07-25 08:53:00
Skybrine The Inescapable2d 03:062019-07-25 10:24:00
Sigil, Lich of Woe2d 05:552019-07-25 13:13:00
Nafir, God of Desolation2d 08:052019-07-25 15:23:00
Dlanod, the Crazed Chancellor2d 17:512019-07-26 01:09:00
Lord Suka2d 18:422019-07-26 02:00:00
Ormsul the Putrid2d 21:122019-07-26 04:30:00
Nayark the Mummified Sorcerer2d 23:562019-07-26 07:14:00
Viserion, the Necrodragon3d 01:142019-07-26 08:32:00
Quiver, The Renegade3d 04:242019-07-26 11:42:00
Anvilfist3d 10:192019-07-26 17:37:00
Sylvanna TorLai3d 17:552019-07-27 01:13:00
Kro Shuk, Doomslayer4d 02:392019-07-27 09:57:00
Crantos, Defender of Ultimation4d 02:422019-07-27 10:00:00
Grivvek, Protector of the Brood4d 08:312019-07-27 15:49:00
Karvaz, Lord of Alsayic4d 20:132019-07-28 03:31:00
Q-SEC Commander5d 05:482019-07-28 13:06:00
Shaik, Servant of Arkron95d 00:452019-04-19 06:32:00
Rook, Hand of Arkron93d 19:172019-04-20 12:00:00
Noxious Slug40d 17:232019-06-12 13:54:00
Beast of Cards40d 04:372019-06-13 02:40:00
Jade Dragonite26d 02:052019-06-27 05:12:00